Roberto Rodrigues

Scout - Internacional
14 Okt 2027
Donnerstag
Verarbeitung

Persönlichkeit

Anpassungsfähigkeit (12) Ehrgeiz (15) Kontroverse (2) Loyalität (4) Druck (12) Professionalität (17) Fairness (2) Temperament (17)

Profil

Trainerstil Demokratisch
Lizenz Kontinentale B
Entschlossenheit 14
Menschenführung 14
Motivation 6
Disziplin 11
Arbeitszufriedenheit
100%
Ermüdung
0%
Rolle Scout
Gehalt 27.2K p/W
Vertrag 14.03.2029

Leistung

Verhalten Gut
Trainingseffektivität
43%
Spielerentwicklung
65%
Verletzungsprävention
65%
Taktische Umsetzung
45%

Letzte Ereignisse

Nahm an einer Scouting-Besprechung teil jetzt
Nahm an einer Scouting-Besprechung teil 7T her
Nahm an einer Scouting-Besprechung teil 7T her
Nahm an einer Scouting-Besprechung teil 7T her
Nahm an einer Scouting-Besprechung teil 14T her
Nahm an einer Scouting-Besprechung teil 14T her
Nahm an einer Scouting-Besprechung teil 14T her
Nahm an einer Scouting-Besprechung teil 21T her

Aktuell beobachtet

190
Spieler Verein Status Fähigkeit Vertrauen Beobachtet Zuletzt beobachtet Letzte Stimme
Finn Azaz Southampton Aktiv 133 / 138 40% 2 31.05.2027 -
Kwadwo Baah Watford Aktiv 137 / 120 40% 1 31.05.2027 -
Mohamed-Ali Cho Hull City Aktiv 140 / 146 40% 1 28.05.2027 -
Amadou Onana Aston Villa Aktiv 157 / 157 40% 2 27.05.2027 -
Adam Wharton Crystal Palace Aktiv 156 / 153 40% 3 27.05.2027 -
Derry Murkin Derby County Aktiv 132 / 114 40% 2 26.05.2027 -
Curtis Jones Inter Aktiv 146 / 157 40% 2 24.05.2027 -
Gonzalo Fulham Aktiv 150 / 159 40% 2 24.05.2027 -
Max Bird Birmingham Aktiv 140 / 135 40% 3 22.05.2027 -
Nicolas Madsen Queens Park Rangers Aktiv 133 / 119 40% 1 22.05.2027 -
Che Adams Torino Aktiv 150 / 149 40% 1 17.05.2027 -
Giacomo Raspadori Atalanta Aktiv 143 / 145 40% 5 16.05.2027 -
Dango Ouattara Brentford Aktiv 149 / 137 40% 1 16.05.2027 -
Mateo Pellegrino Fiorentina Aktiv 137 / 128 40% 3 15.05.2027 -
Georginio Rutter Brighton Aktiv 147 / 160 40% 1 14.05.2027 -
Ryan Sessegnon Fulham Aktiv 157 / 150 40% 2 13.05.2027 -
Juanlu Bournemouth Aktiv 154 / 142 40% 1 13.05.2027 -
Hector Ramirez Newcastle United Aktiv 162 / 143 40% 3 12.05.2027 -
Jarrad Branthwaite Everton Aktiv 168 / 154 40% 1 12.05.2027 -
Nikola Vlašić Torino Aktiv 147 / 142 40% 4 10.05.2027 -
Mats Wieffer Brighton Aktiv 141 / 160 40% 2 09.05.2027 -
Ethan Galbraith Swansea City Aktiv 140 / 127 40% 4 07.05.2027 -
Nicolas Jackson Aston Villa Abgelehnt 160 / 142 40% 3 05.05.2027 Ablehnen
Francisco Conceição Juventus Aktiv 156 / 167 40% 2 05.05.2027 -
James Garner Everton Aktiv 145 / 157 40% 2 05.05.2027 -
Óscar Mingueza Crystal Palace Aktiv 154 / 158 40% 1 05.05.2027 -
Barış Alper Yılmaz Galatasaray Aktiv 142 / 137 40% 5 03.05.2027 -
Ismaïla Sarr Crystal Palace Aktiv 140 / 144 40% 1 03.05.2027 -
Soungoutou Magassa West Ham United Aktiv 141 / 138 40% 1 27.04.2027 -
Ousmane Diomande Nottingham Forest Aktiv 165 / 153 40% 2 26.04.2027 -
Micky van de Ven Tottenham Aktiv 156 / 152 40% 1 26.04.2027 -
Gonçalo Inácio Sporting CP Aktiv 162 / 153 40% 3 23.04.2027 -
Mateo Retegui Tottenham Aktiv 163 / 162 40% 1 23.04.2027 -
Gianluca Prestianni Benfica Aktiv 151 / 136 40% 2 21.04.2027 -
Aaron Hickey Brentford Aktiv 141 / 135 40% 1 21.04.2027 -
Manu Koné AS Roma Aktiv 175 / 166 40% 1 21.04.2027 -
Dodi Lukébakio Benfica Aktiv 144 / 142 40% 2 15.04.2027 -
Zeno Debast Sporting CP Aktiv 133 / 147 40% 2 14.04.2027 -
Francisco Moura Lusitânia Lourosa Aktiv 129 / 126 40% 2 14.04.2027 -
Oli McBurnie Hull City Aktiv 123 / 146 40% 3 13.04.2027 -
Dominic Calvert-Lewin Leeds United Aktiv 150 / 147 40% 1 13.04.2027 -
Morgan Whittaker Middlesbrough Aktiv 129 / 130 40% 1 12.04.2027 -
Welington Southampton Aktiv 130 / 118 40% 4 11.04.2027 -
Nuno Tavares Lazio Aktiv 159 / 150 40% 2 11.04.2027 -
Noah Okafor Leeds United Aktiv 136 / 132 40% 1 10.04.2027 -
Alan Varela Porto Aktiv 147 / 144 40% 3 08.04.2027 -
Iván Fresneda Sporting CP Aktiv 134 / 133 40% 7 07.04.2027 -
João Simões Sporting CP Aktiv 124 / 141 40% 4 07.04.2027 -
Ozziel Herrera Tigres Aktiv 137 / 120 40% 1 03.04.2027 -
Yoane Wissa Newcastle United Aktiv 128 / 136 40% 4 02.04.2027 -
Ayase Ueda LOSC Lille Aktiv 155 / 129 40% 2 02.04.2027 -
Gustaf Lagerbielke Braga Aktiv 151 / 137 40% 11 01.04.2027 -
Kevin Vazquez Cruz Azul Aktiv 133 / 147 40% 1 01.04.2027 -
Tyrell Malacia Monaco Aktiv 138 / 140 40% 2 31.03.2027 -
Nicolás Fernández Mercau Shakhtar Aktiv 139 / 137 40% 2 31.03.2027 -
Tiago Santos LOSC Lille Aktiv 151 / 153 40% 1 27.03.2027 -
Folarin Balogun Monaco Aktiv 135 / 129 40% 4 26.03.2027 -
Dávid Strelec Middlesbrough Aktiv 146 / 130 40% 2 25.03.2027 -
Jens Odgaard Bologna Aktiv 148 / 129 40% 1 24.03.2027 -
Steven Bergwijn Al-Ittihad Aktiv 158 / 144 40% 2 23.03.2027 -
Julián Quiñones Lokomotiv Moscow Aktiv 153 / 133 40% 9 22.03.2027 -
Shea Charles Southampton Aktiv 137 / 133 40% 2 21.03.2027 -
Aidan Morris Middlesbrough Aktiv 145 / 122 40% 3 21.03.2027 -
Rashid Rashid Sparta Prague Aktiv 121 / 143 40% 1 18.03.2027 -
Toni Fruk KV Mechelen Aktiv 152 / 140 40% 1 18.03.2027 -
Paulinho Palmeiras Aktiv 140 / 133 40% 7 15.03.2027 -
Jørgen Strand Larsen Crystal Palace Aktiv 137 / 138 40% 2 15.03.2027 -
Félix Lemaréchal Club Brugge Aktiv 126 / 148 40% 2 13.03.2027 -
Milan van Ewijk Mansfield Town Aktiv 117 / 130 40% 1 11.03.2027 -
Amine Gouiri Olympique de Marseille Aktiv 139 / 151 40% 1 11.03.2027 -
Alberto Costa Porto Aktiv 131 / 145 40% 2 06.03.2027 -
Christian Krasnodar Aktiv 135 / 120 40% 3 03.03.2027 -
Razvan Balasa Crvena Zvezda Aktiv 140 / 136 40% 2 02.03.2027 -
Dwight McNeil Crystal Palace Aktiv 136 / 147 40% 1 01.03.2027 -
Eddie Nketiah Crystal Palace Aktiv 143 / 135 40% 1 01.03.2027 -
Ivan Toney Al-Ahli Aktiv 157 / 138 40% 1 27.02.2027 -
Giovanni Simeone Torino Aktiv 122 / 149 40% 2 25.02.2027 -
Callum Doyle Wrexham Aktiv 117 / 132 40% 4 24.02.2027 -
Imrân Louza Watford Aktiv 118 / 128 40% 2 24.02.2027 -
Luka Jović AEK Aktiv 145 / 138 40% 2 23.02.2027 -
Musa Barrow Al-Khaleej Aktiv 154 / 147 40% 2 23.02.2027 -
Florentino Luís Ipswich Town Aktiv 140 / 137 40% 2 21.02.2027 -
Roberto Fernández Braga Aktiv 146 / 138 40% 2 20.02.2027 -
Gabri Martínez Braga Aktiv 116 / 141 40% 4 19.02.2027 -
Matheus Bidu Corinthians Aktiv 141 / 123 40% 2 13.02.2027 -
Hany Mukhtar Spezia Aktiv 124 / 130 40% 3 12.02.2027 -
Nicolò Zaniolo Udinese Aktiv 158 / 142 40% 4 11.02.2027 -
Lukáš Červ Viktoria Plzen Aktiv 146 / 119 40% 1 11.02.2027 -
Fotis Ioannidis Rio Ave Aktiv 125 / 135 40% 2 08.02.2027 -
Kristoffer Lund Birmingham Aktiv 134 / 121 40% 3 08.02.2027 -
Luke McNally Bristol City Aktiv 125 / 121 40% 1 07.02.2027 -
Álex Centelles Levski Aktiv 141 / 130 40% 1 07.02.2027 -
Adnan Courtois KV Oostende Aktiv 128 / 122 40% 2 05.02.2027 -
Brian Rodríguez Club America Aktiv 141 / 136 40% 1 03.02.2027 -
William Gomes Porto Aktiv 135 / 146 40% 5 31.01.2027 -
Caio Alexandre Bahia Aktiv 127 / 140 40% 4 30.01.2027 -
Eric Ramires Bragantino Aktiv 125 / 125 40% 1 28.01.2027 -
Victor Froholdt Porto Aktiv 158 / 148 40% 7 23.01.2027 -
Ilay Camara Anderlecht Aktiv 131 / 122 40% 1 20.01.2027 -
Rodrigo Zalazar Sporting CP Aktiv 135 / 157 40% 4 18.01.2027 -
Henry Mosquera Bragantino Auf Shortlist 133 / 130 40% 3 18.01.2027 Beobachten
Rodrigo Pinheiro Famalicao Aktiv 115 / 133 40% 4 16.01.2027 -
Ansu Fati Monaco Aktiv 141 / 132 40% 1 16.01.2027 -
Cauan Barros Vasco da Gama Aktiv 123 / 130 40% 1 16.01.2027 -
Pau Víctor AVS Aktiv 155 / 149 40% 5 13.01.2027 -
Jack Rudoni Coventry City Aktiv 118 / 136 40% 1 11.01.2027 -
Diego Rossi Monterrey Aktiv 141 / 130 40% 1 11.01.2027 -
Jesús Orozco Chiquete Cruz Azul Aktiv 141 / 137 40% 1 06.01.2027 -
José Hurtado Bragantino Aktiv 117 / 118 40% 1 04.01.2027 -
Sikou Niakaté Braga Aktiv 121 / 134 40% 2 03.01.2027 -
Lucas Piton Vasco da Gama Aktiv 122 / 124 40% 1 03.01.2027 -
Vitinho Botafogo Aktiv 143 / 129 40% 1 01.01.2027 -
Matheuzinho Corinthians Aktiv 120 / 134 40% 1 01.01.2027 -
Bright Arrey-Mbi Braga Aktiv 114 / 140 40% 1 29.12.2026 -
Emerson Royal Flamengo Aktiv 126 / 124 40% 1 28.12.2026 -
Heorhii Sudakov Benfica Aktiv 162 / 136 40% 8 17.12.2026 -
Samuel Lino Flamengo Aktiv 155 / 133 40% 3 16.12.2026 -
Mario Dorgeles Braga Aktiv 124 / 126 40% 5 12.12.2026 -
Nuno Moreira Vasco da Gama Aktiv 141 / 132 40% 1 08.12.2026 -
Santi García Gil Vicente Aktiv 140 / 134 40% 1 02.12.2026 -
Orbelín Pineda Monterrey Aktiv 136 / 143 40% 3 27.11.2026 -
Igor Burnley Aktiv 134 / 141 40% 1 25.11.2026 -
Agustín Palavecino Cruz Azul Aktiv 132 / 139 40% 1 24.11.2026 -
Marcos Antonio Sport Recife Aktiv 134 / 135 40% 2 23.11.2026 -
Rémi Lemoine Chamois Niortais Aktiv 174 / 152 40% 3 23.11.2026 -
Matheus Pereira Cruzeiro Aktiv 135 / 150 40% 3 22.11.2026 -
Vinicinho Bragantino Aktiv 136 / 124 40% 1 20.11.2026 -
Lucas Paquetá Flamengo Aktiv 146 / 135 40% 1 19.11.2026 -
Lewis Cook Bournemouth Aktiv 162 / 137 40% 1 19.11.2026 -
João Palhinha Benfica Aktiv 160 / 138 40% 2 18.11.2026 -
Léo Ortiz Flamengo Aktiv 134 / 141 40% 2 18.11.2026 -
Zé Leite Leixões Aktiv 108 / 125 40% 1 18.11.2026 -
Andreas Pereira Palmeiras Aktiv 143 / 138 40% 2 15.11.2026 -
Leon Goretzka Aston Villa Aktiv 139 / 141 40% 3 13.11.2026 -
Othmane Maamma Watford Aktiv 138 / 125 40% 1 10.11.2026 -
Luís Guilherme Sporting CP Aktiv 128 / 119 40% 2 09.11.2026 -
Pedro Porro Tottenham Aktiv 130 / 133 40% 2 08.11.2026 -
Duvan Rangel La Equidad Aktiv 126 / 127 40% 1 07.11.2026 -
Henrique Araújo Casa Pia Aktiv 122 / 123 40% 1 06.11.2026 -
Marco Asensio Fenerbahce Aktiv 149 / 158 40% 2 04.11.2026 -
Joaquín Piquerez Palmeiras Aktiv 127 / 129 40% 2 03.11.2026 -
Gérson Cruzeiro Aktiv 153 / 145 40% 2 03.11.2026 -
Brais Méndez Columbus Crew Aktiv 149 / 148 40% 1 03.11.2026 -
Luis Quintero Torreense Aktiv 127 / 135 40% 1 01.11.2026 -
Guilherme Arana Fluminense Aktiv 128 / 140 40% 1 01.11.2026 -
Pablo Rosario Porto Aktiv 131 / 126 40% 3 27.10.2026 -
Jean Lucas Bahia Aktiv 131 / 130 40% 1 27.10.2026 -
Nicolás de la Cruz Flamengo Aktiv 135 / 133 40% 1 25.10.2026 -
Lee Hyun-Ju Arouca Aktiv 131 / 114 40% 1 23.10.2026 -
Manu Pozo Torreense Aktiv 104 / 129 40% 1 22.10.2026 -
Nathan Collins Brentford Aktiv 136 / 135 40% 1 19.10.2026 -
Leandro Barreiro Benfica Aktiv 132 / 146 40% 1 16.10.2026 -
Jan Bednarek Porto Aktiv 127 / 142 40% 1 15.10.2026 -
Dawda Camara Alverca Aktiv 131 / 110 40% 1 15.10.2026 -
Leroy Sané Galatasaray Aktiv 150 / 162 40% 1 13.10.2026 -
Mauro Arambarri River Plate Aktiv 142 / 156 40% 6 10.10.2026 -
Matty Cash Aston Villa Aktiv 148 / 158 40% 2 10.10.2026 -
Taichi Fukui Arouca Aktiv 142 / 131 40% 3 06.10.2026 -
Leonardo Borja La Equidad Aktiv 158 / 153 40% 1 30.09.2026 -
Renan Lodi Atlético Mineiro Aktiv 144 / 139 40% 2 26.09.2026 -
Danilo Botafogo Aktiv 124 / 135 40% 1 26.09.2026 -
Ianis Stoica Estrela da Amadora Aktiv 96 / 107 40% 1 26.09.2026 -
Adrien Truffert Bournemouth Aktiv 142 / 157 40% 1 21.09.2026 Mehr Infos nötig
Geny Sporting CP Aktiv 125 / 140 40% 2 17.09.2026 -
Jalen Blesa Rio Ave Aktiv 133 / 108 40% 1 15.09.2026 -
Víctor Gómez Braga Aktiv 124 / 132 40% 1 13.09.2026 -
Luis Sinisterra Cruzeiro Aktiv 132 / 142 40% 1 11.09.2026 -
Marlon Freitas Palmeiras Aktiv 129 / 131 40% 1 09.09.2026 -
Arthur Santos Aktiv 150 / 144 40% 1 09.09.2026 -
Joachim Andersen Fulham Aktiv 127 / 134 40% 1 08.09.2026 -
Saša Lukić Ipswich Town Aktiv 143 / 149 40% 1 08.09.2026 -
Sergi Altimira Sporting CP Aktiv 136 / 132 40% 1 07.09.2026 -
Ángel Correa River Plate Aktiv 131 / 138 40% 1 04.09.2026 -
Pepê Porto Aktiv 159 / 145 40% 2 31.08.2026 -
Ricardo Horta Braga Aktiv 146 / 138 40% 2 31.08.2026 -
Eduardo Quaresma Sporting CP Aktiv 157 / 134 40% 2 28.08.2026 -
Dan Ndoye Nottingham Forest Aktiv 147 / 138 40% 1 28.08.2026 -
Demir Ege Tıknaz Braga Aktiv 104 / 130 40% 1 26.08.2026 -
Martín Tejón Maritimo Aktiv 103 / 111 40% 1 25.08.2026 -
Gabriel Veron Porto Aktiv 125 / 134 40% 1 24.08.2026 -
Lorougnon Gohi Académico de Viseu Aktiv 125 / 107 40% 1 23.08.2026 -
Mikel Merino Arsenal Aktiv 145 / 161 40% 1 16.08.2026 -
Diego Rodrigues Braga Aktiv 101 / 118 40% 1 15.08.2026 -
Álex Berenguer Athletic Bilbao Aktiv 152 / 153 40% 1 08.08.2026 -
Giovani Lo Celso Olympique de Marseille Aktiv 147 / 147 40% 1 08.08.2026 -
Pape Guèye Villarreal Aktiv 167 / 135 40% 1 07.08.2026 -
Robin Le Normand Atlético Madrid Aktiv 151 / 155 40% 1 07.08.2026 -
Mateja Stjepanović Moreirense Aktiv 100 / 128 40% 1 06.08.2026 -
Gonçalo Nogueira Vitoria Guimaraes Aktiv 111 / 124 40% 1 04.08.2026 -
Marcos Llorente Atlético Madrid Aktiv 159 / 157 40% 1 02.08.2026 -